,,Stat5,,Stat1,,Stat2,,Stat3,,Stat4,,Wind1,,Wind1,
time,status,PA1M_AVG,status,PR1M_SUM,status,RH1M_AVG,status,SR1M_AVG,status,TA1M_AVG,status,W1dAve1m,status,W1sAve1m,
2000-07-18, 00:00:00,VALID,918.406,VALID,0,VALID,95.556,VALID,-0.0339617,VALID,18.2868,VALID,193,VALID,0,
2000-07-18, 00:01:00,VALID,918.409,VALID,0,VALID,95.8294,VALID,0,VALID,18.2743,VALID,193,VALID,0,
2000-07-18, 00:02:00,VALID,918.389,VALID,0,VALID,95.3856,VALID,-0.0509425,VALID,18.2194,VALID,196,VALID,0,
2000-07-18, 00:03:00,VALID,918.395,VALID,0,VALID,94.9901,VALID,-0.0679233,VALID,18.1587,VALID,196,VALID,0,
2000-07-18, 00:04:00,VALID,918.391,VALID,0,VALID,95.1122,VALID,-0.0679233,VALID,18.1168,VALID,215,VALID,0,
2000-07-18, 00:05:00,VALID,918.365,VALID,0,VALID,95.5903,VALID,-0.0679233,VALID,18.0773,VALID,217,VALID,0,
2000-07-18, 00:06:00,VALID,918.337,VALID,0,VALID,95.8561,VALID,-0.0679233,VALID,18.0485,VALID,227,VALID,0,
2000-07-18, 00:07:00,VALID,918.319,VALID,0,VALID,96.0176,VALID,-0.0679233,VALID,18.0201,VALID,228,VALID,0,
2000-07-18, 00:08:00,VALID,918.308,VALID,0,VALID,96.2185,VALID,-0.0339617,VALID,18.0067,VALID,222,VALID,0,
2000-07-18, 00:09:00,VALID,918.295,VALID,0,VALID,96.3902,VALID,-0.0679233,VALID,17.9973,VALID,218,VALID,0,
2000-07-18, 00:10:00,VALID,918.289,VALID,0,VALID,96.9878,VALID,-0.0169808,VALID,18.0296,VALID,221,VALID,0,
2000-07-18, 00:11:00,VALID,918.281,VALID,0,VALID,97.3986,VALID,-0.101885,VALID,18.0748,VALID,219,VALID,0,
2000-07-18, 00:12:00,VALID,918.288,VALID,0,VALID,97.6516,VALID,-0.101885,VALID,18.1361,VALID,211,VALID,0,
2000-07-18, 00:13:00,VALID,918.302,VALID,0,VALID,97.7215,VALID,-0.0679233,VALID,18.1684,VALID,210,VALID,0,
2000-07-18, 00:14:00,VALID,918.307,VALID,0,VALID,97.6859,VALID,-0.0679233,VALID,18.1945,VALID,200,VALID,0.192708,
2000-07-18, 00:15:00,VALID,918.316,VALID,0,VALID,97.3884,VALID,-0.0339617,VALID,18.1813,VALID,192,VALID,0.422081,
2000-07-18, 00:16:00,VALID,918.317,VALID,0,VALID,96.8047,VALID,-0.0169808,VALID,18.1334,VALID,195,VALID,0.774071,
2000-07-18, 00:17:00,VALID,918.318,VALID,0,VALID,97.3439,VALID,-0.0679233,VALID,18.146,VALID,197,VALID,0.935202,
2000-07-18, 00:18:00,VALID,918.325,VALID,0,VALID,97.5715,VALID,-0.0679233,VALID,18.1686,VALID,202,VALID,0.87315,
2000-07-18, 00:19:00,VALID,918.311,VALID,0,VALID,97.8474,VALID,-0.0679233,VALID,18.2072,VALID,199,VALID,0.887247,
2000-07-18, 00:20:00,VALID,918.292,VALID,0,VALID,97.8767,VALID,-0.0509425,VALID,18.2533,VALID,206,VALID,0.668586,
2000-07-18, 00:21:00,VALID,918.285,VALID,0,VALID,98,VALID,-0.101885,VALID,18.2948,VALID,203,VALID,0.65815,
2000-07-18, 00:22:00,VALID,918.258,VALID,0,VALID,97.8423,VALID,-0.0849042,VALID,18.308,VALID,195,VALID,0.682589,
2000-07-18, 00:23:00,VALID,918.249,VALID,0,VALID,97.6681,VALID,-0.101885,VALID,18.3147,VALID,194,VALID,0.790064,
2000-07-18, 00:24:00,VALID,918.233,VALID,0,VALID,97.6122,VALID,-0.0339617,VALID,18.3207,VALID,194,VALID,0.846117,
2000-07-18, 00:25:00,VALID,918.23,VALID,0,VALID,97.4176,VALID,-0.0509425,VALID,18.2976,VALID,202,VALID,0.842857,
2000-07-18, 00:26:00,VALID,918.223,VALID,0,VALID,97.3693,VALID,-0.0339617,VALID,18.2914,VALID,196,VALID,0.927787,
2000-07-18, 00:27:00,VALID,918.215,VALID,0,VALID,97.5372,VALID,0,VALID,18.2969,VALID,195,VALID,1.06123,
2000-07-18, 00:28:00,VALID,918.192,VALID,0,VALID,98.0216,VALID,0.0169808,VALID,18.3652,VALID,198,VALID,1.1435,
2000-07-18, 00:29:00,VALID,918.167,VALID,0,VALID,98.0318,VALID,0,VALID,18.4169,VALID,200,VALID,0.970269,
2000-07-18, 00:30:00,VALID,918.15,VALID,0,VALID,97.9479,VALID,0,VALID,18.4392,VALID,204,VALID,0.88384,
2000-07-18, 00:31:00,VALID,918.136,VALID,0,VALID,97.6211,VALID,0.0169808,VALID,18.4397,VALID,205,VALID,0.635557,
2000-07-18, 00:32:00,VALID,918.118,VALID,0,VALID,97.2561,VALID,0,VALID,18.4042,VALID,205,VALID,0.70841,
2000-07-18, 00:33:00,VALID,918.102,VALID,0,VALID,97.3477,VALID,0,VALID,18.4143,VALID,205,VALID,0.57463,
2000-07-18, 00:34:00,VALID,918.105,VALID,0,VALID,97.2129,VALID,0.0169808,VALID,18.394,VALID,213,VALID,0.638091,
2000-07-18, 00:35:00,VALID,918.085,VALID,0,VALID,97.1786,VALID,0,VALID,18.3846,VALID,220,VALID,0.681538,
2000-07-18, 00:36:00,VALID,918.104,VALID,0,VALID,97.2892,VALID,0,VALID,18.3848,VALID,218,VALID,0.925253,
2000-07-18, 00:37:00,VALID,918.116,VALID,0,VALID,97.452,VALID,-0.0169808,VALID,18.3977,VALID,211,VALID,0.926562,
2000-07-18, 00:38:00,VALID,918.119,VALID,0,VALID,97.5143,VALID,0,VALID,18.4007,VALID,209,VALID,0.912861,
2000-07-18, 00:39:00,VALID,918.149,VALID,0,VALID,97.5486,VALID,0,VALID,18.4201,VALID,202,VALID,0.754972,
2000-07-18, 00:40:00,VALID,918.156,VALID,0,VALID,97.3528,VALID,0,VALID,18.4069,VALID,199,VALID,0.809598,
2000-07-18, 00:41:00,VALID,918.158,VALID,0,VALID,97.6262,VALID,0,VALID,18.43,VALID,178,VALID,1.30194,
2000-07-18, 00:42:00,VALID,918.144,VALID,0,VALID,97.5422,VALID,0,VALID,18.4231,VALID,176,VALID,1.07454,
2000-07-18, 00:43:00,VALID,918.128,VALID,0,VALID,97.7495,VALID,0,VALID,18.4459,VALID,175,VALID,1.03947,
2000-07-18, 00:44:00,VALID,918.11,VALID,0,VALID,97.5995,VALID,-0.0339617,VALID,18.4171,VALID,175,VALID,0.862179,
2000-07-18, 00:45:00,VALID,918.097,VALID,0,VALID,97.5486,VALID,0,VALID,18.4134,VALID,178,VALID,0.88898,
2000-07-18, 00:46:00,VALID,918.093,VALID,0,VALID,97.5702,VALID,-0.0169808,VALID,18.4238,VALID,180,VALID,1.09692,
2000-07-18, 00:47:00,VALID,918.088,VALID,0,VALID,97.6046,VALID,-0.0169808,VALID,18.4171,VALID,191,VALID,1.28562,
2000-07-18, 00:48:00,VALID,918.099,VALID,0,VALID,97.4469,VALID,0,VALID,18.4106,VALID,181,VALID,1.08676,
2000-07-18, 00:49:00,VALID,918.09,VALID,0,VALID,97.2739,VALID,-0.0169808,VALID,18.3846,VALID,181,VALID,1.00612,
2000-07-18, 00:50:00,VALID,918.08,VALID,0,VALID,97.2027,VALID,0,VALID,18.3555,VALID,187,VALID,0.9375,
2000-07-18, 00:51:00,VALID,918.066,VALID,0,VALID,97.5194,VALID,0.0169808,VALID,18.3843,VALID,181,VALID,0.758446,
2000-07-18, 00:52:00,VALID,918.043,VALID,0,VALID,97.5842,VALID,0,VALID,18.3873,VALID,186,VALID,0.851339,
2000-07-18, 00:53:00,VALID,918.027,VALID,0,VALID,97.3515,VALID,0,VALID,18.3846,VALID,177,VALID,0.727965,
2000-07-18, 00:54:00,VALID,918.002,VALID,0,VALID,97.4418,VALID,0,VALID,18.3915,VALID,185,VALID,0.796638,
2000-07-18, 00:55:00,VALID,917.974,VALID,0,VALID,97.4558,VALID,0,VALID,18.3783,VALID,205,VALID,0.849554,
2000-07-18, 00:56:00,VALID,917.963,VALID,0,VALID,97.4151,VALID,0,VALID,18.3654,VALID,206,VALID,0.817356,
2000-07-18, 00:57:00,VALID,917.948,VALID,0,VALID,97.5066,VALID,0,VALID,18.3756,VALID,208,VALID,0.837416,
2000-07-18, 00:58:00,VALID,917.94,VALID,0,VALID,97.513,VALID,0,VALID,18.3691,VALID,203,VALID,0.794819,
2000-07-18, 00:59:00,VALID,917.929,VALID,0,VALID,97.7355,VALID,-0.0169808,VALID,18.3783,VALID,185,VALID,0.983507,
2000-07-18, 01:00:00,VALID,917.915,VALID,0,VALID,97.8716,VALID,0,VALID,18.3938,VALID,173,VALID,1.32833,
2000-07-18, 01:01:00,VALID,917.92,VALID,0,VALID,97.8322,VALID,0,VALID,18.4069,VALID,173,VALID,1.03547,
2000-07-18, 01:02:00,VALID,917.916,VALID,0,VALID,97.5295,VALID,0,VALID,18.3753,VALID,166,VALID,0.870404,
2000-07-18, 01:03:00,VALID,917.924,VALID,0,VALID,97.3998,VALID,0,VALID,18.3361,VALID,172,VALID,0.899054,
2000-07-18, 01:04:00,VALID,917.91,VALID,0,VALID,97.5003,VALID,0,VALID,18.3264,VALID,182,VALID,0.904139,
2000-07-18, 01:05:00,VALID,917.892,VALID,0,VALID,97.5689,VALID,0,VALID,18.3101,VALID,187,VALID,0.961554,
2000-07-18, 01:06:00,VALID,917.866,VALID,0,VALID,97.5842,VALID,-0.0169808,VALID,18.2941,VALID,183,VALID,1.00697,
2000-07-18, 01:07:00,VALID,917.852,VALID,0,VALID,97.6084,VALID,0.0169808,VALID,18.2847,VALID,190,VALID,0.923661,
2000-07-18, 01:08:00,VALID,917.839,VALID,0,VALID,97.7978,VALID,0,VALID,18.2847,VALID,184,VALID,1.07091,
2000-07-18, 01:09:00,VALID,917.826,VALID,0,VALID,97.9542,VALID,0,VALID,18.2937,VALID,187,VALID,1.23722,
2000-07-18, 01:10:00,VALID,917.845,VALID,0,VALID,97.9352,VALID,0,VALID,18.3396,VALID,184,VALID,0.977679,
2000-07-18, 01:11:00,VALID,917.847,VALID,0,VALID,97.7775,VALID,-0.0169808,VALID,18.3366,VALID,179,VALID,0.914274,
2000-07-18, 01:12:00,VALID,917.835,VALID,0,VALID,97.7076,VALID,0,VALID,18.3463,VALID,186,VALID,1.07454,
2000-07-18, 01:13:00,VALID,917.816,VALID,0,VALID,97.761,VALID,-0.0169808,VALID,18.3753,VALID,181,VALID,0.772204,
2000-07-18, 01:14:00,VALID,917.801,VALID,0,VALID,97.541,VALID,-0.0339617,VALID,18.3756,VALID,189,VALID,0.832899,
2000-07-18, 01:15:00,VALID,917.762,VALID,0,VALID,97.5664,VALID,-0.0339617,VALID,18.3846,VALID,202,VALID,1.19367,
2000-07-18, 01:16:00,VALID,917.726,VALID,0,VALID,97.4698,VALID,-0.0339617,VALID,18.4079,VALID,222,VALID,1.09692,
2000-07-18, 01:17:00,VALID,917.698,VALID,0,VALID,97.4469,VALID,-0.0169808,VALID,18.4369,VALID,217,VALID,0.932904,
2000-07-18, 01:18:00,VALID,917.674,VALID,0,VALID,97.4253,VALID,0,VALID,18.4722,VALID,210,VALID,1.3898,
2000-07-18, 01:19:00,VALID,917.656,VALID,0,VALID,97.3172,VALID,0,VALID,18.4849,VALID,208,VALID,1.16448,
2000-07-18, 01:20:00,VALID,917.667,VALID,0,VALID,97.3019,VALID,-0.0339617,VALID,18.5334,VALID,218,VALID,1.08512,
2000-07-18, 01:21:00,VALID,917.671,VALID,0,VALID,97.1163,VALID,0,VALID,18.5368,VALID,194,VALID,0.906039,
2000-07-18, 01:22:00,VALID,917.672,VALID,0,VALID,96.8963,VALID,-0.0169808,VALID,18.5299,VALID,194,VALID,0.555357,
2000-07-18, 01:23:00,VALID,917.677,VALID,0,VALID,96.8047,VALID,0,VALID,18.5137,VALID,192,VALID,0.614383,
2000-07-18, 01:24:00,VALID,917.673,VALID,0,VALID,96.8543,VALID,0,VALID,18.5137,VALID,189,VALID,0.581439,
2000-07-18, 01:25:00,VALID,917.658,VALID,0,VALID,96.8327,VALID,-0.0339617,VALID,18.5008,VALID,197,VALID,0.618304,
2000-07-18, 01:26:00,VALID,917.654,VALID,0,VALID,96.895,VALID,-0.0339617,VALID,18.4944,VALID,208,VALID,0.713049,
2000-07-18, 01:27:00,VALID,917.651,VALID,0,VALID,96.9624,VALID,0.0679233,VALID,18.4872,VALID,214,VALID,1.00591,
2000-07-18, 01:28:00,VALID,917.637,VALID,0,VALID,96.895,VALID,0.0679233,VALID,18.481,VALID,215,VALID,1.08676,
2000-07-18, 01:29:00,VALID,917.624,VALID,0,VALID,96.853,VALID,0.0339617,VALID,18.4676,VALID,219,VALID,1.09006,
2000-07-18, 01:30:00,VALID,917.622,VALID,0,VALID,96.9268,VALID,0.0169808,VALID,18.4708,VALID,226,VALID,1.03557,
2000-07-18, 01:31:00,VALID,917.621,VALID,0,VALID,96.8403,VALID,0.0509425,VALID,18.4775,VALID,223,VALID,1.0758,
2000-07-18, 01:32:00,VALID,917.61,VALID,0,VALID,96.7818,VALID,0,VALID,18.4909,VALID,209,VALID,1.02964,
2000-07-18, 01:33:00,VALID,917.604,VALID,0,VALID,96.8505,VALID,0.0339617,VALID,18.5038,VALID,204,VALID,0.8125,
2000-07-18, 01:34:00,VALID,917.594,VALID,0,VALID,96.7043,VALID,0.0339617,VALID,18.5034,VALID,191,VALID,0.658995,
2000-07-18, 01:35:00,VALID,917.607,VALID,0,VALID,96.6,VALID,0.0679233,VALID,18.4833,VALID,205,VALID,0.596628,
2000-07-18, 01:36:00,VALID,917.614,VALID,0,VALID,96.5606,VALID,0.0679233,VALID,18.481,VALID,194,VALID,0.570524,
2000-07-18, 01:37:00,VALID,917.636,VALID,0,VALID,96.7106,VALID,0.0679233,VALID,18.4676,VALID,184,VALID,0.582143,
2000-07-18, 01:38:00,VALID,917.648,VALID,0,VALID,96.6458,VALID,0.101885,VALID,18.4485,VALID,188,VALID,0.446314,
2000-07-18, 01:39:00,VALID,917.65,VALID,0,VALID,96.6725,VALID,0.0339617,VALID,18.4321,VALID,194,VALID,0.540246,
2000-07-18, 01:40:00,VALID,917.649,VALID,0,VALID,96.8925,VALID,0.0509425,VALID,18.4258,VALID,193,VALID,0.753125,
2000-07-18, 01:41:00,VALID,917.643,VALID,0,VALID,97.0234,VALID,0,VALID,18.4425,VALID,184,VALID,0.572846,
2000-07-18, 01:42:00,VALID,917.64,VALID,0,VALID,96.9522,VALID,-0.0679233,VALID,18.4404,VALID,203,VALID,0.541385,
2000-07-18, 01:43:00,VALID,917.625,VALID,0,VALID,97.1824,VALID,-0.0679233,VALID,18.4568,VALID,233,VALID,0.693462,
2000-07-18, 01:44:00,VALID,917.619,VALID,0,VALID,96.9777,VALID,-0.0679233,VALID,18.4563,VALID,220,VALID,0.437066,
2000-07-18, 01:45:00,VALID,917.611,VALID,0,VALID,96.7818,VALID,-0.0509425,VALID,18.4468,VALID,203,VALID,0.640831,
2000-07-18, 01:46:00,VALID,917.597,VALID,0,VALID,96.7068,VALID,-0.0849042,VALID,18.421,VALID,177,VALID,0.644003,
2000-07-18, 01:47:00,VALID,917.579,VALID,0,VALID,96.6483,VALID,-0.0849042,VALID,18.3885,VALID,189,VALID,0.649127,
2000-07-18, 01:48:00,VALID,917.578,VALID,0,VALID,97.0336,VALID,-0.0509425,VALID,18.3758,VALID,189,VALID,1.02611,
2000-07-18, 01:49:00,VALID,917.553,VALID,0,VALID,97.1239,VALID,-0.0849042,VALID,18.382,VALID,181,VALID,0.847551,
2000-07-18, 01:50:00,VALID,917.54,VALID,0,VALID,97.1595,VALID,-0.0509425,VALID,18.3758,VALID,188,VALID,0.559416,
2000-07-18, 01:51:00,VALID,917.537,VALID,0,VALID,97.1124,VALID,-0.0509425,VALID,18.3626,VALID,191,VALID,0.390414,
2000-07-18, 01:52:00,VALID,917.523,VALID,0,VALID,97.1124,VALID,-0.101885,VALID,18.3564,VALID,177,VALID,0.593527,
2000-07-18, 01:53:00,VALID,917.529,VALID,0,VALID,97.1633,VALID,-0.101885,VALID,18.3474,VALID,189,VALID,0.727364,
2000-07-18, 01:54:00,VALID,917.516,VALID,0,VALID,97.4087,VALID,-0.101885,VALID,18.3564,VALID,179,VALID,0.752131,
2000-07-18, 01:55:00,VALID,917.505,VALID,0,VALID,97.2383,VALID,-0.0849042,VALID,18.3442,VALID,178,VALID,0.518304,
2000-07-18, 01:56:00,VALID,917.503,VALID,0,VALID,97.1709,VALID,-0.101885,VALID,18.3107,VALID,177,VALID,0.587416,
2000-07-18, 01:57:00,VALID,917.492,VALID,0,VALID,96.998,VALID,-0.0849042,VALID,18.2817,VALID,182,VALID,0.524071,
2000-07-18, 01:58:00,VALID,917.496,VALID,0,VALID,97.3426,VALID,-0.0679233,VALID,18.3114,VALID,186,VALID,1.04441,
2000-07-18, 01:59:00,VALID,917.489,VALID,0,VALID,97.2345,VALID,-0.0509425,VALID,18.308,VALID,221,VALID,0.782552,
2000-07-18, 02:00:00,VALID,917.478,VALID,0,VALID,97.3693,VALID,-0.0679233,VALID,18.3437,VALID,206,VALID,0.710938,
2000-07-18, 02:01:00,VALID,917.484,VALID,0,VALID,97.1658,VALID,-0.0849042,VALID,18.3562,VALID,212,VALID,0.294552,
2000-07-18, 02:02:00,VALID,917.492,VALID,0,VALID,96.7462,VALID,-0.0509425,VALID,18.3303,VALID,216,VALID,0.17739,
2000-07-18, 02:03:00,VALID,917.504,VALID,0,VALID,96.4359,VALID,-0.101885,VALID,18.3043,VALID,200,VALID,0.31435,
2000-07-18, 02:04:00,VALID,917.524,VALID,0,VALID,96.5936,VALID,-0.0849042,VALID,18.3179,VALID,197,VALID,0.380279,
2000-07-18, 02:05:00,VALID,917.526,VALID,0,VALID,96.6636,VALID,-0.0849042,VALID,18.3147,VALID,216,VALID,0.492599,
2000-07-18, 02:06:00,VALID,917.535,VALID,0,VALID,96.7424,VALID,-0.0509425,VALID,18.3241,VALID,208,VALID,0.499367,
2000-07-18, 02:07:00,VALID,917.528,VALID,0,VALID,96.7755,VALID,-0.0679233,VALID,18.3246,VALID,216,VALID,0.738393,
2000-07-18, 02:08:00,VALID,917.531,VALID,0,VALID,96.5657,VALID,-0.0339617,VALID,18.3144,VALID,205,VALID,0.341747,
2000-07-18, 02:09:00,VALID,917.52,VALID,0,VALID,96.6737,VALID,-0.0679233,VALID,18.3174,VALID,211,VALID,0,
2000-07-18, 02:10:00,VALID,917.489,VALID,0,VALID,96.8327,VALID,-0.0679233,VALID,18.34,VALID,207,VALID,0.179911,
2000-07-18, 02:11:00,VALID,917.485,VALID,0,VALID,96.8263,VALID,-0.0509425,VALID,18.3624,VALID,189,VALID,0.792863,
2000-07-18, 02:12:00,VALID,917.467,VALID,0,VALID,96.867,VALID,0.0339617,VALID,18.3712,VALID,203,VALID,0.721284,
2000-07-18, 02:13:00,VALID,917.451,VALID,0,VALID,96.7691,VALID,0.0339617,VALID,18.3843,VALID,217,VALID,0.422492,
2000-07-18, 02:14:00,VALID,917.442,VALID,0,VALID,96.8352,VALID,0.0339617,VALID,18.3712,VALID,216,VALID,0.963759,
2000-07-18, 02:15:00,VALID,917.418,VALID,0,VALID,96.9827,VALID,0.0339617,VALID,18.3836,VALID,215,VALID,0.99301,
2000-07-18, 02:16:00,VALID,917.401,VALID,0,VALID,96.97,VALID,0.0169808,VALID,18.397,VALID,208,VALID,0.712204,
2000-07-18, 02:17:00,VALID,917.391,VALID,0,VALID,97.0387,VALID,0.0339617,VALID,18.3901,VALID,199,VALID,0.679458,
2000-07-18, 02:18:00,VALID,917.391,VALID,0,VALID,96.9827,VALID,0.0339617,VALID,18.4032,VALID,205,VALID,0.706209,
2000-07-18, 02:19:00,VALID,917.38,VALID,0,VALID,96.9268,VALID,0.0509425,VALID,18.4037,VALID,181,VALID,0.746199,
2000-07-18, 02:20:00,VALID,917.367,VALID,0,VALID,96.9268,VALID,0.0509425,VALID,18.4102,VALID,187,VALID,0.84375,
2000-07-18, 02:21:00,VALID,917.361,VALID,0,VALID,96.8836,VALID,0,VALID,18.4067,VALID,178,VALID,1.11064,
2000-07-18, 02:22:00,VALID,917.349,VALID,0,VALID,96.9433,VALID,0.0169808,VALID,18.4104,VALID,183,VALID,0.898438,
2000-07-18, 02:23:00,VALID,917.358,VALID,0,VALID,96.7869,VALID,0,VALID,18.3906,VALID,180,VALID,0.701322,
2000-07-18, 02:24:00,VALID,917.367,VALID,0,VALID,96.7043,VALID,0.0509425,VALID,18.3384,VALID,184,VALID,0.828598,
2000-07-18, 02:25:00,VALID,917.378,VALID,0,VALID,96.7971,VALID,0.0339617,VALID,18.319,VALID,193,VALID,1.09263,
2000-07-18, 02:26:00,VALID,917.377,VALID,0,VALID,96.937,VALID,0.0509425,VALID,18.3098,VALID,190,VALID,0.915541,
2000-07-18, 02:27:00,VALID,917.379,VALID,0,VALID,97.04,VALID,0.0339617,VALID,18.3324,VALID,186,VALID,1.06292,
2000-07-18, 02:28:00,VALID,917.376,VALID,0,VALID,96.8556,VALID,0,VALID,18.3225,VALID,179,VALID,0.966694,
2000-07-18, 02:29:00,VALID,917.382,VALID,0,VALID,96.6674,VALID,0.0169808,VALID,18.3096,VALID,172,VALID,1.1059,
2000-07-18, 02:30:00,VALID,917.385,VALID,0,VALID,96.6699,VALID,0.0169808,VALID,18.2937,VALID,175,VALID,1.13734,
2000-07-18, 02:31:00,VALID,917.384,VALID,0,VALID,96.7068,VALID,0.0169808,VALID,18.2711,VALID,165,VALID,0.921242,
2000-07-18, 02:32:00,VALID,917.38,VALID,0,VALID,96.5428,VALID,0,VALID,18.2452,VALID,160,VALID,0.901425,
2000-07-18, 02:33:00,VALID,917.365,VALID,0,VALID,96.4169,VALID,0,VALID,18.1998,VALID,167,VALID,0.960321,
2000-07-18, 02:34:00,VALID,917.354,VALID,0,VALID,96.9242,VALID,0.0169808,VALID,18.1943,VALID,181,VALID,0.953758,
2000-07-18, 02:35:00,VALID,917.336,VALID,0,VALID,96.9751,VALID,-0.0169808,VALID,18.1975,VALID,185,VALID,1.11616,
2000-07-18, 02:36:00,VALID,917.312,VALID,0,VALID,96.8467,VALID,0.0339617,VALID,18.1776,VALID,185,VALID,1.05342,
2000-07-18, 02:37:00,VALID,917.286,VALID,0,VALID,96.8365,VALID,0,VALID,18.1424,VALID,202,VALID,1.04054,
2000-07-18, 02:38:00,VALID,917.266,VALID,0,VALID,96.7424,VALID,0,VALID,18.1262,VALID,206,VALID,1.10978,
2000-07-18, 02:39:00,VALID,917.257,VALID,0,VALID,96.9153,VALID,0.0169808,VALID,18.0995,VALID,202,VALID,1.17377,
2000-07-18, 02:40:00,VALID,917.244,VALID,0,VALID,96.8467,VALID,0.0169808,VALID,18.1198,VALID,198,VALID,1.04397,
2000-07-18, 02:41:00,VALID,917.227,VALID,0,VALID,96.834,VALID,0,VALID,18.0935,VALID,192,VALID,1.32791,
2000-07-18, 02:42:00,VALID,917.219,VALID,0,VALID,96.8073,VALID,0,VALID,18.0835,VALID,195,VALID,1.41301,
2000-07-18, 02:43:00,VALID,917.198,VALID,0,VALID,96.7488,VALID,0,VALID,18.0706,VALID,199,VALID,1.2352,
2000-07-18, 02:44:00,VALID,917.187,VALID,0,VALID,96.7386,VALID,-0.0339617,VALID,18.0748,VALID,197,VALID,1.40365,
2000-07-18, 02:45:00,VALID,917.172,VALID,0,VALID,96.6941,VALID,-0.0169808,VALID,18.0748,VALID,190,VALID,1.13836,
2000-07-18, 02:46:00,VALID,917.172,VALID,0,VALID,96.3978,VALID,0.0169808,VALID,18.0489,VALID,180,VALID,0.872466,
2000-07-18, 02:47:00,VALID,917.17,VALID,0,VALID,96.2503,VALID,0,VALID,17.9901,VALID,176,VALID,0.81296,
2000-07-18, 02:48:00,VALID,917.168,VALID,0,VALID,96.4983,VALID,0,VALID,17.9479,VALID,182,VALID,0.712171,
2000-07-18, 02:49:00,VALID,917.159,VALID,0,VALID,96.703,VALID,0.0169808,VALID,17.9159,VALID,193,VALID,0.951225,
2000-07-18, 02:50:00,VALID,917.139,VALID,0,VALID,96.7933,VALID,0,VALID,17.8935,VALID,194,VALID,0.778166,
2000-07-18, 02:51:00,VALID,917.124,VALID,0,VALID,96.6203,VALID,0,VALID,17.8554,VALID,186,VALID,0.860008,
2000-07-18, 02:52:00,VALID,917.135,VALID,0,VALID,96.895,VALID,0.0169808,VALID,17.8059,VALID,200,VALID,1.02411,
2000-07-18, 02:53:00,VALID,917.128,VALID,0,VALID,97.0438,VALID,0.0169808,VALID,17.7941,VALID,198,VALID,1.14804,
2000-07-18, 02:54:00,VALID,917.135,VALID,0,VALID,97.246,VALID,0,VALID,17.7904,VALID,198,VALID,1.11932,
2000-07-18, 02:55:00,VALID,917.149,VALID,0,VALID,97.3973,VALID,0.0169808,VALID,17.7938,VALID,191,VALID,1.26362,
2000-07-18, 02:56:00,VALID,917.163,VALID,0,VALID,97.6491,VALID,0,VALID,17.8033,VALID,190,VALID,1.2954,
2000-07-18, 02:57:00,VALID,917.18,VALID,0,VALID,97.6007,VALID,0,VALID,17.8321,VALID,190,VALID,1.33383,
2000-07-18, 02:58:00,VALID,917.2,VALID,0,VALID,97.513,VALID,0.0169808,VALID,17.8225,VALID,189,VALID,1.21752,
2000-07-18, 02:59:00,VALID,917.213,VALID,0,VALID,97.4176,VALID,0,VALID,17.819,VALID,188,VALID,1.08355,
2000-07-18, 03:00:00,VALID,917.221,VALID,0,VALID,97.4621,VALID,0,VALID,17.8259,VALID,186,VALID,1.02015,
2000-07-18, 03:01:00,VALID,917.235,VALID,0,VALID,97.513,VALID,0,VALID,17.8321,VALID,189,VALID,0.964949,
2000-07-18, 03:02:00,VALID,917.242,VALID,0,VALID,97.232,VALID,0.0169808,VALID,17.8033,VALID,183,VALID,0.841452,
2000-07-18, 03:03:00,VALID,917.25,VALID,0,VALID,97.0921,VALID,0.0169808,VALID,17.7611,VALID,182,VALID,0.875206,
2000-07-18, 03:04:00,VALID,917.25,VALID,0,VALID,97.5372,VALID,0,VALID,17.7805,VALID,184,VALID,0.979941,
2000-07-18, 03:05:00,VALID,917.243,VALID,0,VALID,97.719,VALID,0,VALID,17.8162,VALID,182,VALID,1.04379,
2000-07-18, 03:06:00,VALID,917.24,VALID,0,VALID,97.897,VALID,0,VALID,17.8782,VALID,188,VALID,1.23416,
2000-07-18, 03:07:00,VALID,917.238,VALID,0,VALID,97.869,VALID,0.0169808,VALID,17.8903,VALID,184,VALID,1.14844,
2000-07-18, 03:08:00,VALID,917.236,VALID,0,VALID,97.8411,VALID,0.0169808,VALID,17.9389,VALID,188,VALID,1.07352,
2000-07-18, 03:09:00,VALID,917.239,VALID,0,VALID,97.6198,VALID,0.0169808,VALID,17.9482,VALID,192,VALID,0.939394,
2000-07-18, 03:10:00,VALID,917.258,VALID,0,VALID,97.3286,VALID,0,VALID,17.9486,VALID,199,VALID,0.778571,
2000-07-18, 03:11:00,VALID,917.261,VALID,0,VALID,97.2269,VALID,0.0169808,VALID,17.9484,VALID,205,VALID,0.986698,
2000-07-18, 03:12:00,VALID,917.261,VALID,0,VALID,97.2205,VALID,0,VALID,17.9454,VALID,196,VALID,0.840794,
2000-07-18, 03:13:00,VALID,917.253,VALID,0,VALID,97.2612,VALID,0.0169808,VALID,17.9557,VALID,188,VALID,0.927426,
2000-07-18, 03:14:00,VALID,917.251,VALID,0,VALID,97.2561,VALID,0.0339617,VALID,17.9555,VALID,191,VALID,1.04601,
2000-07-18, 03:15:00,VALID,917.248,VALID,0,VALID,97.1213,VALID,0,VALID,17.9486,VALID,198,VALID,1.09005,
2000-07-18, 03:16:00,VALID,917.241,VALID,0,VALID,97.1074,VALID,0.0169808,VALID,17.9488,VALID,201,VALID,1.07052,
2000-07-18, 03:17:00,VALID,917.238,VALID,0,VALID,97.115,VALID,0.0169808,VALID,17.9684,VALID,196,VALID,1.08295,
2000-07-18, 03:18:00,VALID,917.234,VALID,0,VALID,97.1569,VALID,0.0169808,VALID,17.9813,VALID,204,VALID,1.16365,
2000-07-18, 03:19:00,VALID,917.231,VALID,0,VALID,97.1557,VALID,0,VALID,18.0136,VALID,198,VALID,0.925253,
2000-07-18, 03:20:00,VALID,917.242,VALID,0,VALID,96.9916,VALID,0.0169808,VALID,18.0332,VALID,201,VALID,0.789474,
2000-07-18, 03:21:00,VALID,917.256,VALID,0,VALID,96.9141,VALID,0.0169808,VALID,18.0589,VALID,206,VALID,0.678843,
2000-07-18, 03:22:00,VALID,917.254,VALID,0,VALID,96.8594,VALID,0,VALID,18.0812,VALID,206,VALID,0.642857,
2000-07-18, 03:23:00,VALID,917.252,VALID,0,VALID,96.8327,VALID,0.0339617,VALID,18.1172,VALID,203,VALID,0.669671,
2000-07-18, 03:24:00,VALID,917.238,VALID,0,VALID,96.7386,VALID,0.0169808,VALID,18.1336,VALID,219,VALID,0.653646,
2000-07-18, 03:25:00,VALID,917.235,VALID,0,VALID,96.6432,VALID,0.0169808,VALID,18.1428,VALID,221,VALID,0.626786,
2000-07-18, 03:26:00,VALID,917.22,VALID,0,VALID,96.5669,VALID,0.0169808,VALID,18.1523,VALID,220,VALID,0.627111,
2000-07-18, 03:27:00,VALID,917.215,VALID,0,VALID,96.4881,VALID,0.0339617,VALID,18.1654,VALID,217,VALID,0.754012,
2000-07-18, 03:28:00,VALID,917.209,VALID,0,VALID,96.5529,VALID,0,VALID,18.1816,VALID,204,VALID,0.584087,
2000-07-18, 03:29:00,VALID,917.224,VALID,0,VALID,96.1753,VALID,0.0169808,VALID,18.1848,VALID,171,VALID,0.107422,
2000-07-18, 03:30:00,VALID,917.223,VALID,0,VALID,94.9202,VALID,0.0169808,VALID,18.1001,VALID,165,VALID,0,
2000-07-18, 03:31:00,VALID,917.238,VALID,0,VALID,95.4644,VALID,0.0339617,VALID,18.078,VALID,163,VALID,0,
2000-07-18, 03:32:00,VALID,917.253,VALID,0,VALID,95.6628,VALID,0.0509425,VALID,18.0487,VALID,143,VALID,0,
2000-07-18, 03:33:00,VALID,917.256,VALID,0,VALID,95.5738,VALID,0.0169808,VALID,18.0072,VALID,136,VALID,0,
2000-07-18, 03:34:00,VALID,917.251,VALID,0,VALID,95.5191,VALID,0,VALID,17.9587,VALID,136,VALID,0,
2000-07-18, 03:35:00,VALID,917.264,VALID,0,VALID,95.1682,VALID,0.0169808,VALID,17.8651,VALID,136,VALID,0,